Content
SEND FEEDBACK

Daily
Averages
Monthly
Summary
Canada

DRUMHELLER, ALBERTA


Home > North America > Canada > Alberta
Elevation: 2254 feet     Latitude: 51 28N     Longitude: 112 43W

WEATHER
 
SELECT A DAY
Number of Records: 137,445;   Date Range: 1/1/95 - 7/23/14
 
SHARE

PRINT THIS DATA

[ ← Previous Day ]
WEATHER ALMANAC - JULY 1, 2013
[ Next Day → ]
[ °C ]   °F
We're sorry. There is no daily almanac available for Drumheller, Alberta on July 1, 2013.
WEATHER BY HOUR - JULY 1, 2013
[ °C ]   °F
Local TimeTemperatureDewpointHumidityBarometerVisibilityWind DirectionWind SpeedGust SpeedPrecipitationEventsConditions
12:00 AM63.3 °F60.4 °F90 %30.14 inESE (120°)1.2 mph
1:00 AM61.2 °F59.0 °F93 %30.15 inSSE (160°)3.5 mph
2:00 AM59.5 °F57.6 °F93 %30.16 inSSE (150°)3.5 mph
3:00 AM58.3 °F56.7 °F94 %30.15 inSE (130°)3.5 mph
4:00 AM57.0 °F55.4 °F94 %30.16 inSouth (180°)3.5 mph
5:00 AM55.9 °F54.3 °F94 %30.16 inSSE (150°)3.5 mph
6:00 AM55.6 °F54.1 °F95 %30.16 inSouth (170°)3.5 mph
6:00 AM56.0 °F54.0 °F91 %30.16 inSouth (170°)3.5 mph
7:00 AM58.1 °F55.2 °F90 %30.17 inSE (130°)2.3 mph
8:00 AM61.7 °F57.4 °F86 %30.17 inSE (130°)3.5 mph
9:00 AM67.6 °F60.1 °F77 %30.17 inESE (110°)2.3 mph
10:00 AM73.8 °F62.8 °F68 %30.17 inSE (130°)4.6 mph
11:00 AM76.8 °F61.0 °F58 %30.16 inSE (130°)8.1 mph
12:00 PM79.2 °F63.7 °F59 %30.16 inSSE (150°)5.8 mph
12:00 PM79.0 °F64.0 °F50 %30.16 inSSE (150°)5.8 mph
1:00 PM81.0 °F63.9 °F56 %30.14 inSouth (170°)6.9 mph
2:00 PM81.7 °F64.2 °F55 %30.14 inSouth (180°)6.9 mph
3:00 PM83.1 °F64.6 °F53 %30.12 inSouth (170°)5.8 mph
4:00 PM83.8 °F63.7 °F51 %30.12 inSSW (200°)8.1 mph
5:00 PM83.5 °F63.1 °F50 %30.10 inSSE (150°)8.1 mph
6:00 PM83.7 °F61.0 °F46 %30.08 inSSE (160°)8.1 mph
6:00 PM84.0 °F61.0 °F36 %30.08 inSSE (160°)8.1 mph
7:00 PM82.9 °F60.4 °F46 %30.06 inSSE (160°)8.1 mph
8:00 PM82.0 °F62.4 °F51 %30.05 inSSE (160°)6.9 mph
9:00 PM78.6 °F63.3 °F59 %30.03 inSSE (150°)4.6 mph
10:00 PM72.1 °F61.5 °F69 %30.03 inSSE (160°)5.8 mph
11:00 PM69.3 °F61.9 °F77 %30.04 inSSE (150°)5.8 mph
Hourly data recorded from CWDZ, located miles away from Drumheller, Alberta







STORIES FROM OUR PARTNERS